This demonstration page uses our WeatherBlox Daily Observations layout. Learn more.

Left ArrowRight Arrow

39.01783, -85.05884

Hourly Observations for November 4, 2018

Temp ( °F °C ) Dew Point ( °F °C ) Humidity (%) Winds ( mph kmh ) Pressure ( in mb ) Visibility ( mi km ) Precip ( " mm )
12:52 am 00:52 Mostly Cloudy 47 8.3 37 2.8 69 69 ESE 10 17 30.28 1026 10 16 0.00 0.00
1:52 am 01:52 Cloudy 46 7.8 37 2.8 71 71 ESE 8 13 30.28 1025 10 16 0.00 0.00
1:52 am 01:52 Mostly Cloudy 46 7.8 37 2.8 71 71 ESE 9 15 30.29 1026 10 16 0.00 0.00
2:52 am 02:52 Cloudy 45 7.2 37 2.8 74 74 ESE 8 13 30.29 1026 10 16 0.00 0.00
3:52 am 03:52 Cloudy 45 7.2 36 2.2 71 71 ESE 9 15 30.25 1024 10 16 0.00 0.00
4:52 am 04:52 Cloudy 45 7.2 36 2.2 71 71 ESE 12 19 30.25 1024 10 16 0.00 0.00
5:52 am 05:52 Cloudy 45 7.2 36 2.2 71 71 ESE 10 17 30.27 1025 10 16 0.00 0.00
6:52 am 06:52 Mostly Cloudy 45 7.2 36 2.2 71 71 ESE 13 20 30.25 1024 10 16 0.00 0.00
7:52 am 07:52 Mostly Cloudy 44 6.7 36 2.2 73 73 SE 8 13 30.26 1025 10 16 0.00 0.00
8:52 am 08:52 Mostly Cloudy 46 7.8 37 2.8 71 71 SE 13 20 30.25 1025 10 16 0.00 0.00
9:52 am 09:52 Mostly Cloudy 50 10 39 3.9 66 66 SE 16 26 30.23 1024 10 16 0.00 0.00
10:52 am 10:52 Mostly Cloudy 54 12.2 40 4.4 59 59 SSE 14 22 30.20 1023 10 16 0.00 0.00
11:52 am 11:52 Mostly Cloudy 56 13.3 41 5 57 57 SE 15 24 30.16 1022 10 16 0.00 0.00
12:52 pm 12:52 Mostly Cloudy 59 15 41 5 51 51 SSE 14 22 30.11 1020 10 16 0.00 0.00
1:52 pm 13:52 Mostly Cloudy 61 16.1 41 5 48 48 SSE 20 31 30.08 1019 10 16 0.00 0.00
2:52 pm 14:52 Mostly Cloudy 60 15.6 41 5 50 50 SSE 13 20 30.05 1018 10 16 0.00 0.00
3:52 pm 15:52 Cloudy 60 15.6 40 4.4 47 47 SSE 20 31 30.06 1018 10 16 0.00 0.00
4:52 pm 16:52 Cloudy 59 15 39 3.9 48 48 SSE 14 22 30.05 1018 10 16 0.00 0.00
5:52 pm 17:52 Cloudy with Light Rain 56 13.3 42 5.6 60 60 SSE 22 35 30.07 1018 10 16 0.00 0.03
6:52 pm 18:52 Cloudy with Light Rain 54 12.2 43 6.1 67 67 S 9 15 30.05 1018 8 13 0.02 0.51
7:52 pm 19:52 Cloudy with Light Rain 52 11.1 44 6.7 75 75 S 13 20 30.05 1018 10 16 0.01 0.25
8:52 pm 20:52 Cloudy with Light Rain 50 10 46 7.8 86 86 S 8 13 30.04 1017 9 14 0.03 0.76
9:52 pm 21:52 Cloudy with Light Rain 50 10 46 7.8 86 86 S 9 15 30.04 1017 10 16 0.02 0.51
10:52 pm 22:52 Cloudy with Light Rain 50 10 50 10 100 100 S 13 20 30.03 1017 10 16 0.02 0.51
11:52 pm 23:52 Cloudy with Light Rain 50 10 48 8.9 93 93 S 13 20 30.02 1017 10 16 0.01 0.25

Powered by AerisWeather